Regional Weather Roundup
Issued by NWS

Home | Current Version | Previous Version | Text Only | Print | Product List | Glossary Off
Versions: 1 2 3 4 5 6 7 8 9 10 11 12 13 14 15 16 17 18 19 20 21 22 23 24 25 26 27 28 29 30 31 32 33 34 35 36 37 38 39 40 41 42 43 44 45 46 47 48 49 50

000
ASUS43 KOAX 231402
RWRNE

WEATHER ROUNDUP FOR NEBRASKA
NATIONAL WEATHER SERVICE OMAHA NE
900 AM CDT WED APR 23 2014

NOTES: SATELLITE DATA IS BEING USED TO AUGMENT CLOUD COVER ABOVE
       12000 FEET.
       "FAIR" INDICATES FEW OR NO CLOUDS BELOW 12,000 FEET WITH NO
       SIGNIFICANT WEATHER AND/OR OBSTRUCTIONS TO VISIBILITY.

  * THESE STATIONS DO NOT REPORT WEATHER SUCH AS RAIN...SNOW OR FOG.

NEZ001>004-019>022-054>056-231500-
NEBRASKA PANHANDLE

CITY           SKY/WX    TMP DP  RH WIND       PRES   REMARKS
SCOTTSBLUFF    CLOUDY    56  40  55 W17       29.59R
ALLIANCE       CLOUDY    53  47  79 MISG      29.56R
CHADRON        CLOUDY    57  45  64 W7        29.52S
KIMBALL        CLOUDY    52  35  51 NW23      29.60R
SIDNEY         CLOUDY    54  42  64 W12       29.59R
$$

NEZ057>060-069>072-079>082-231500-
SOUTHWEST NEBRASKA

CITY           SKY/WX    TMP DP  RH WIND       PRES   REMARKS
NORTH PLATTE   CLOUDY    57  42  57 SE14      29.56F
IMPERIAL       CLOUDY    61  44  53 SE3       29.54R
LEXINGTON      PTSUNNY   59  42  52 SE21G29   29.62F
MCCOOK         CLOUDY    61  47  59 S18       29.57F
OGALLALA       CLOUDY    53  44  71 E5        29.54S
$$

NEZ005>010-023>029-035>040-094-231500-
NORTH CENTRAL NEBRASKA

CITY           SKY/WX    TMP DP  RH WIND       PRES   REMARKS
VALENTINE      CLOUDY    58  36  43 S15       29.54R
AINSWORTH      CLOUDY    58  38  47 S35G41    29.52F
BROKEN BOW     CLOUDY    56  38  50 S29G39    29.62F
O`NEILL        CLOUDY    55  37  50 SE24G31   29.64F
ORD            CLOUDY    55  38  52 SE21G28   29.65F
THEDFORD       CLOUDY    57  38  48 S22G30    29.54F
$$

NEZ041-046>049-061>064-073>077-083>087-231500-
SOUTH CENTRAL NEBRASKA

CITY           SKY/WX    TMP DP  RH WIND       PRES   REMARKS
GRAND ISLAND   CLOUDY    56  41  57 SE24G35   29.71F
AURORA         CLOUDY    55  42  61 SE21G31   29.74F
HASTINGS       CLOUDY    57  37  47 S25G38    29.70F
HEBRON         PTSUNNY   55  42  60 SE22G33   29.80F
HOLDREGE       PTSUNNY   58  38  48 S26G38    29.65F
KEARNEY *      CLOUDY    57  37  47 SE29G37   29.67F
YORK           CLOUDY    50  43  76 SE26G33   29.77F
$$

NEZ011>018-030>034-042>045-231500-
NORTHEAST NEBRASKA

CITY           SKY/WX    TMP DP  RH WIND       PRES   REMARKS
NORFOLK        CLOUDY    53  39  59 SE23G40   29.74F
ALBION         CLOUDY    54  38  56 SE21G29   29.73F
BLAIR          CLOUDY    49  40  71 SE18G25   29.89F
COLUMBUS *     CLOUDY    52  37  58 SE23G30   29.79F
FREMONT        DRIZZLE   50  42  72 SE20G25   29.86F
TEKAMAH        LGT RAIN  50  40  68 SE23      29.89F
$$

NEZ050>053-065>068-078-088>093-231500-
SOUTHEAST NEBRASKA

CITY           SKY/WX    TMP DP  RH WIND       PRES   REMARKS
LINCOLN        LGT RAIN  52  41  66 SE23G33   29.87F
OMAHA EPPLEY   LGT RAIN  49  40  71 SE23      29.91F
BEATRICE       CLOUDY    53  42  67 SE17G25   29.85F
FALLS CITY     LGT RAIN  52  43  71 SE14      29.94F
NEBRASKA CITY  DRIZZLE   51  40  66 SE20G29   29.93F
PLATTSMOUTH    LGT RAIN  49  41  74 SE18      29.92F
$$

NEZ044-045-051>053-067-231500-
OMAHA AREA

CITY           SKY/WX    TMP DP  RH WIND       PRES   REMARKS
OMAHA EPPLEY   LGT RAIN  49  40  71 SE23      29.91F
BLAIR          CLOUDY    49  40  71 SE18G25   29.89F
FREMONT        DRIZZLE   50  42  72 SE20G25   29.86F
MILLARD        RAIN      50  40  70 SE16G25   29.90F
OFFUTT AFB     LGT RAIN  49  42  76 E16G24    29.93F
PLATTSMOUTH    LGT RAIN  49  41  74 SE18      29.92F
WAHOO          CLOUDY    51  40  65 SE25G35   29.86F
$$



USA.gov is the U.S. government's official web portal to all federal, state and local government web resources and services.